Date String (YYYY-MM-DD hh:mm:ss) UTC,Instrument flags,Ambient pressure (hPa),Sample flow (lpm),Bypass flow (lpm),Sample temperature (°C),Ambient temperature (°C),ASC tube jacket temperature (°C),LED temperature (°C),Box temperature (°C),Sample RH (%),Span deviation,Mass concentration (μg/m³),Mass concentration (μg/m³),Mass concentration (μg/m³)
DateTimeUTC,F1_M11,P_M11,Q1_M11,Q2_M11,T1_M11,T2_M11,T3_M11,T4_M11,T5_M11,U1_M11,ZSPAN_M11,X0_M11,X2_M11,X1_M11
2022-03-10 00:00:00,,0822.1,5.00,0.00,22.5,22.6,00.0,31.5,24.3,06.0,0000.0,0004.65,0002.99,0002.58
2022-03-10 00:01:00,,0822.1,5.00,0.00,22.5,22.3,00.0,31.5,24.2,06.1,0000.0,0004.75,0003.03,0002.60
2022-03-10 00:02:00,,0822.2,5.00,0.00,22.4,22.1,00.0,31.5,24.1,06.1,0000.0,0004.80,0003.05,0002.60
2022-03-10 00:03:00,,0822.2,5.00,0.00,22.4,21.9,00.0,31.4,24.0,06.2,0000.0,0004.41,0003.07,0002.61
2022-03-10 00:04:00,,0822.1,5.01,0.00,22.3,21.7,00.0,31.4,23.8,06.3,0000.0,0004.54,0003.10,0002.63
2022-03-10 00:05:00,,0822.1,4.99,0.00,22.2,21.4,00.0,31.4,23.8,06.3,0000.0,0005.40,0003.08,0002.65
2022-03-10 00:06:00,,0822.1,5.00,0.00,22.2,21.3,00.0,31.4,23.7,06.3,0000.0,0005.95,0003.09,0002.67
2022-03-10 00:07:00,,0822.1,4.99,0.00,22.2,21.8,00.0,31.4,23.8,06.2,0000.0,0005.86,0003.09,0002.68
2022-03-10 00:08:00,,0822.1,5.01,0.00,22.3,22.6,00.0,31.4,24.1,06.2,0000.0,0005.90,0003.11,0002.69
2022-03-10 00:09:00,,0822.1,5.00,0.00,22.4,23.0,00.0,31.4,24.3,06.1,0000.0,0005.99,0003.14,0002.71
2022-03-10 00:10:00,,0822.2,5.00,0.00,22.5,22.6,00.0,31.4,24.3,06.1,0000.0,0005.98,0003.14,0002.72
2022-03-10 00:11:00,,0822.3,5.00,0.00,22.4,22.1,00.0,31.4,24.1,06.2,0000.0,0005.97,0003.15,0002.74
2022-03-10 00:12:00,,0822.4,4.99,0.00,22.3,21.8,00.0,31.4,24.0,06.2,0000.0,0005.90,0003.15,0002.76
2022-03-10 00:13:00,,0822.5,5.00,0.00,22.3,21.6,00.0,31.4,23.9,06.2,0000.0,0005.79,0003.15,0002.78
2022-03-10 00:14:00,,0822.5,4.99,0.00,22.2,21.4,00.0,31.3,23.7,06.2,0000.0,0005.99,0003.16,0002.78
2022-03-10 00:15:00,,0822.6,4.99,0.00,22.1,21.3,00.0,31.3,23.7,06.2,0000.0,0005.80,0003.17,0002.79
2022-03-10 00:16:00,,0822.6,5.02,0.00,22.1,21.2,00.0,31.3,23.6,06.2,0000.0,0004.99,0003.18,0002.80
2022-03-10 00:17:00,,0822.6,5.00,0.00,22.1,21.7,00.0,31.3,23.7,06.2,0000.0,0004.32,0003.20,0002.84
2022-03-10 00:18:00,,0822.6,4.99,0.00,22.3,22.4,00.0,31.3,24.0,06.1,0000.0,0004.25,0003.18,0002.86
2022-03-10 00:19:00,,0822.6,4.99,0.00,22.4,23.0,00.0,31.4,24.3,06.1,0000.0,0004.17,0003.16,0002.85
2022-03-10 00:20:00,,0822.6,5.00,0.00,22.4,22.7,00.0,31.4,24.3,06.1,0000.0,0004.12,0003.15,0002.86
2022-03-10 00:21:00,,0822.6,5.01,0.00,22.4,22.3,00.0,31.4,24.2,06.1,0000.0,0004.17,0003.17,0002.89
2022-03-10 00:22:00,,0822.6,5.00,0.00,22.3,21.8,00.0,31.3,24.0,06.1,0000.0,0004.26,0003.20,0002.91
2022-03-10 00:23:00,,0822.6,4.99,0.00,22.2,21.5,00.0,31.3,23.9,06.2,0000.0,0004.34,0003.21,0002.91
2022-03-10 00:24:00,,0822.5,5.01,0.00,22.2,21.4,00.0,31.3,23.7,06.2,0000.0,0004.33,0003.22,0002.92
2022-03-10 00:25:00,,0822.5,5.00,0.00,22.1,21.2,00.0,31.3,23.6,06.2,0000.0,0004.17,0003.21,0002.92
2022-03-10 00:26:00,,0822.5,4.99,0.00,22.0,21.1,00.0,31.3,23.5,06.2,0000.0,0004.17,0003.20,0002.91
2022-03-10 00:27:00,,0822.5,5.02,0.00,22.0,21.1,00.0,31.2,23.5,06.2,0000.0,0004.10,0003.18,0002.90
2022-03-10 00:28:00,,0822.5,4.99,0.00,22.1,21.8,00.0,31.2,23.7,06.2,0000.0,0004.20,0003.19,0002.87
2022-03-10 00:29:00,,0822.5,5.01,0.00,22.2,22.5,00.0,31.3,24.0,06.2,0000.0,0004.39,0003.19,0002.86
2022-03-10 00:30:00,,0822.5,4.99,0.00,22.3,22.8,00.0,31.3,24.2,06.2,0000.0,0004.47,0003.21,0002.88
2022-03-10 00:31:00,,0822.5,5.00,0.00,22.4,22.6,00.0,31.3,24.2,06.2,0000.0,0004.48,0003.22,0002.90
2022-03-10 00:32:00,,0822.5,5.00,0.00,22.3,22.3,00.0,31.3,24.1,06.2,0000.0,0004.56,0003.23,0002.90
2022-03-10 00:33:00,,0822.6,5.00,0.00,22.3,22.0,00.0,31.3,23.9,06.2,0000.0,0004.62,0003.24,0002.91
2022-03-10 00:34:00,,0822.6,4.99,0.00,22.2,21.8,00.0,31.3,23.8,06.2,0000.0,0004.60,0003.23,0002.93
2022-03-10 00:35:00,,0822.7,5.01,0.00,22.2,21.6,00.0,31.3,23.7,06.3,0000.0,0004.69,0003.26,0002.97
2022-03-10 00:36:00,,0822.7,4.99,0.00,22.1,21.4,00.0,31.2,23.6,06.3,0000.0,0004.77,0003.29,0003.01
2022-03-10 00:37:00,,0822.6,5.00,0.00,22.1,21.3,00.0,31.2,23.6,06.3,0000.0,0004.77,0003.29,0003.00
2022-03-10 00:38:00,,0822.6,5.00,0.00,22.1,21.9,00.0,31.2,23.8,06.3,0000.0,0004.82,0003.29,0003.00
2022-03-10 00:39:00,,0822.6,4.99,0.00,22.2,22.6,00.0,31.3,24.1,06.3,0000.0,0005.09,0003.30,0003.03
2022-03-10 00:40:00,,0822.6,5.01,0.00,22.4,23.0,00.0,31.3,24.3,06.2,0000.0,0005.08,0003.30,0003.05
2022-03-10 00:41:00,,0822.7,4.99,0.00,22.4,22.7,00.0,31.3,24.2,06.1,0000.0,0005.11,0003.33,0003.06
2022-03-10 00:42:00,,0822.7,5.01,0.00,22.4,22.4,00.0,31.3,24.1,06.1,0000.0,0005.36,0003.38,0003.07
2022-03-10 00:43:00,,0822.9,5.00,0.00,22.3,22.1,00.0,31.3,24.0,06.1,0000.0,0005.44,0003.40,0003.08
2022-03-10 00:44:00,,0823.0,5.00,0.00,22.3,21.9,00.0,31.3,23.9,06.1,0000.0,0005.37,0003.39,0003.08
2022-03-10 00:45:00,,0823.1,5.01,0.00,22.2,21.7,00.0,31.3,23.8,06.1,0000.0,0005.44,0003.41,0003.06
2022-03-10 00:46:00,,0823.2,5.00,0.00,22.1,21.5,00.0,31.3,23.7,06.2,0000.0,0005.36,0003.39,0003.02
2022-03-10 00:47:00,,0823.3,5.00,0.00,22.1,21.3,00.0,31.2,23.6,06.2,0000.0,0005.42,0003.40,0003.01
2022-03-10 00:48:00,,0823.2,5.00,0.00,22.0,21.4,00.0,31.2,23.6,06.2,0000.0,0005.47,0003.43,0003.05
2022-03-10 00:49:00,,0823.2,5.00,0.00,22.1,22.1,00.0,31.3,23.9,06.1,0000.0,0005.56,0003.46,0003.10
2022-03-10 00:50:00,,0823.1,5.01,0.00,22.3,22.8,00.0,31.3,24.2,06.1,0000.0,0005.54,0003.50,0003.13
2022-03-10 00:51:00,,0823.1,5.00,0.00,22.4,23.3,00.0,31.3,24.4,06.0,0000.0,0005.45,0003.54,0003.14
2022-03-10 00:52:00,,0823.1,4.99,0.00,22.5,23.1,00.0,31.3,24.4,06.0,0000.0,0005.39,0003.53,0003.15
2022-03-10 00:53:00,,0822.9,5.01,0.00,22.5,22.7,00.0,31.3,24.3,06.0,0000.0,0005.23,0003.50,0003.16
2022-03-10 00:54:00,,0822.8,5.00,0.00,22.4,22.1,00.0,31.3,24.1,06.1,0000.0,0005.18,0003.50,0003.17
2022-03-10 00:55:00,,0822.8,4.99,0.00,22.3,21.6,00.0,31.3,24.0,06.1,0000.0,0005.26,0003.53,0003.18
2022-03-10 00:56:00,,0823.0,5.00,0.00,22.3,21.2,00.0,31.3,23.8,06.1,0000.0,0005.10,0003.49,0003.18
2022-03-10 00:57:00,,0822.9,4.99,0.00,22.2,21.0,00.0,31.3,23.7,06.1,0000.0,0005.13,0003.50,0003.18
2022-03-10 00:58:00,,0823.0,5.01,0.00,22.1,20.7,00.0,31.2,23.6,06.2,0000.0,0005.03,0003.47,0003.17
2022-03-10 00:59:00,,0823.1,5.00,0.00,22.0,20.6,00.0,31.2,23.5,06.2,0000.0,0004.98,0003.45,0003.16
